When you browse on this site, cookies collect data to enhance your experience and personalize the content and advertising you see.
Visit our Privacy Policy to learn more. By continuing to use the site, you agree to this use of cookies and data.
  • In Slovakia
  • List of Countries
  • For 7 days
  • Water Temperature
  • Weather Map
  • Weather Widgets
  • user-avatar
    Login

    Hourly Weather Grossarltal

    Today, 24 October, Thursday

    Time Temperature Precipitation Wind Pressure Humidity
    00:00 +7°C° 0 mm 3 mps 635 mmHg 70%
    01:00 +7°C° 0 mm 3 mps 635 mmHg 68%
    02:00 +7°C° 0 mm 3 mps 635 mmHg 67%
    03:00 +7°C° 0 mm 3 mps 634 mmHg 66%
    04:00 +7°C° 0 mm 3 mps 634 mmHg 65%
    05:00 +7°C° 0 mm 3 mps 634 mmHg 64%
    06:00 +7°C° 0 mm 3 mps 634 mmHg 63%
    07:00 +7°C° 0 mm 3 mps 634 mmHg 62%
    08:00 +9°C° 0 mm 3 mps 635 mmHg 57%
    09:00 +12°C° 0 mm 3 mps 636 mmHg 52%
    10:00 +14°C° 0 mm 3 mps 637 mmHg 47%
    11:00 +16°C° 0 mm 3 mps 637 mmHg 45%
    12:00 +17°C° 0 mm 3 mps 637 mmHg 44%
    13:00 +18°C° 0 mm 2 mps 637 mmHg 43%
    14:00 +17°C° 0 mm 2 mps 636 mmHg 50%
    15:00 +15°C° 0 mm 2 mps 636 mmHg 57%
    16:00 +14°C° 0 mm 2 mps 635 mmHg 65%
    17:00 +12°C° 0 mm 2 mps 635 mmHg 70%
    18:00 +10°C° 0 mm 2 mps 635 mmHg 75%
    19:00 +8°C° 0 mm 2 mps 635 mmHg 80%
    20:00 +8°C° 0 mm 2 mps 635 mmHg 79%
    21:00 +8°C° 0 mm 1 mps 635 mmHg 78%
    22:00 +8°C° 0 mm 1 mps 635 mmHg 76%
    23:00 +8°C° 0 mm 1 mps 635 mmHg 76%

    Tomorrow, 25 October, Friday

    Time Temperature Precipitation Wind Pressure Humidity
    00:00 +8°C° 0 mm 1 mps 635 mmHg 76%
    01:00 +6°C° 0 mm 0 mps 636 mmHg 76%
    02:00 +6°C° 0 mm 0 mps 636 mmHg 79%
    03:00 +7°C° 0 mm 1 mps 635 mmHg 81%
    04:00 +6°C° 0 mm 1 mps 635 mmHg 84%
    05:00 +6°C° 0 mm 1 mps 636 mmHg 87%
    06:00 +6°C° 0 mm 1 mps 637 mmHg 89%
    07:00 +6°C° 0 mm 1 mps 637 mmHg 92%
    08:00 +7°C° 0 mm 1 mps 638 mmHg 90%
    09:00 +9°C° 0 mm 1 mps 639 mmHg 89%
    10:00 +10°C° 0 mm 1 mps 639 mmHg 87%
    11:00 +10°C° 0 mm 1 mps 640 mmHg 84%
    12:00 +11°C° 0 mm 1 mps 640 mmHg 80%
    13:00 +12°C° 0 mm 1 mps 640 mmHg 76%
    14:00 +12°C° 0 mm 1 mps 640 mmHg 76%
    15:00 +12°C° 0 mm 1 mps 640 mmHg 77%
    16:00 +11°C° 0 mm 0 mps 640 mmHg 77%
    17:00 +9°C° 0 mm 0 mps 640 mmHg 82%
    18:00 +8°C° 0 mm 1 mps 640 mmHg 87%
    19:00 +7°C° 0 mm 1 mps 639 mmHg 92%
    20:00 +7°C° 0 mm 1 mps 640 mmHg 92%
    21:00 +7°C° 0 mm 1 mps 640 mmHg 92%
    22:00 +7°C° 0 mm 1 mps 640 mmHg 92%
    23:00 +7°C° 0 mm 1 mps 640 mmHg 91%

    Day after tomorrow, 26 October, Saturday

    Time Temperature Precipitation Wind Pressure Humidity
    00:00 +7°C° 0 mm 1 mps 640 mmHg 91%
    01:00 +6°C° 0 mm 2 mps 639 mmHg 90%
    02:00 +6°C° 0 mm 2 mps 639 mmHg 89%
    03:00 +6°C° 0 mm 2 mps 639 mmHg 87%
    04:00 +6°C° 0 mm 2 mps 639 mmHg 86%
    05:00 +6°C° 0 mm 2 mps 639 mmHg 83%
    06:00 +6°C° 0 mm 2 mps 639 mmHg 80%
    07:00 +7°C° 0 mm 1 mps 639 mmHg 78%
    08:00 +9°C° 0 mm 1 mps 640 mmHg 70%
    09:00 +12°C° 0 mm 1 mps 641 mmHg 62%
    10:00 +15°C° 0 mm 1 mps 642 mmHg 54%
    11:00 +16°C° 0 mm 1 mps 642 mmHg 51%
    12:00 +18°C° 0 mm 1 mps 642 mmHg 48%
    13:00 +19°C° 0 mm 1 mps 642 mmHg 45%
    14:00 +18°C° 0 mm 1 mps 642 mmHg 52%
    15:00 +16°C° 0 mm 1 mps 641 mmHg 59%
    16:00 +15°C° 0 mm 1 mps 640 mmHg 67%
    17:00 +13°C° 0 mm 1 mps 640 mmHg 71%
    18:00 +11°C° 0 mm 1 mps 640 mmHg 74%
    19:00 +9°C° 0 mm 1 mps 639 mmHg 78%
    20:00 +9°C° 0 mm 1 mps 639 mmHg 77%
    21:00 +8°C° 0 mm 1 mps 639 mmHg 75%
    22:00 +8°C° 0 mm 1 mps 639 mmHg 73%
    23:00 +8°C° 0 mm 1 mps 639 mmHg 71%

    , 27 October, Sunday

    Time Temperature Precipitation Wind Pressure Humidity
    00:00 +8°C° 0 mm 1 mps 639 mmHg 69%
    01:00 +8°C° 0 mm 1 mps 639 mmHg 67%
    02:00 +7°C° 0 mm 1 mps 639 mmHg 66%
    03:00 +7°C° 0 mm 1 mps 639 mmHg 64%
    04:00 +7°C° 0 mm 1 mps 639 mmHg 63%
    05:00 +7°C° 0 mm 1 mps 639 mmHg 63%
    06:00 +7°C° 0 mm 1 mps 638 mmHg 63%
    07:00 +7°C° 0 mm 1 mps 638 mmHg 63%
    08:00 +10°C° 0 mm 1 mps 639 mmHg 59%
    09:00 +13°C° 0 mm 1 mps 641 mmHg 55%
    10:00 +14°C° 0 mm 0 mps 642 mmHg 50%
    11:00 +16°C° 0 mm 1 mps 642 mmHg 48%
    12:00 +18°C° 0 mm 1 mps 641 mmHg 46%
    13:00 +19°C° 0 mm 1 mps 641 mmHg 43%
    14:00 +16°C° 0 mm 1 mps 641 mmHg 51%
    15:00 +15°C° 0 mm 1 mps 640 mmHg 59%
    16:00 +14°C° 0 mm 1 mps 639 mmHg 68%
    17:00 +12°C° 0 mm 1 mps 639 mmHg 70%
    18:00 +10°C° 0 mm 1 mps 638 mmHg 73%
    19:00 +8°C° 0 mm 1 mps 637 mmHg 76%
    20:00 +8°C° 0 mm 1 mps 637 mmHg 74%
    21:00 +7°C° 0 mm 1 mps 637 mmHg 72%
    22:00 +7°C° 0 mm 1 mps 637 mmHg 69%
    23:00 +7°C° 0 mm 1 mps 637 mmHg 69%

    27 October, Sunday

    Time Temperature Precipitation Wind Pressure Humidity
    00:00 +8°C° 0 mm 1 mps 639 mmHg 69%
    01:00 +8°C° 0 mm 1 mps 639 mmHg 67%
    02:00 +7°C° 0 mm 1 mps 639 mmHg 66%
    03:00 +7°C° 0 mm 1 mps 639 mmHg 64%
    04:00 +7°C° 0 mm 1 mps 639 mmHg 63%
    05:00 +7°C° 0 mm 1 mps 639 mmHg 63%
    06:00 +7°C° 0 mm 1 mps 638 mmHg 63%
    07:00 +7°C° 0 mm 1 mps 638 mmHg 63%
    08:00 +10°C° 0 mm 1 mps 639 mmHg 59%
    09:00 +13°C° 0 mm 1 mps 641 mmHg 55%
    10:00 +14°C° 0 mm 0 mps 642 mmHg 50%
    11:00 +16°C° 0 mm 1 mps 642 mmHg 48%
    12:00 +18°C° 0 mm 1 mps 641 mmHg 46%
    13:00 +19°C° 0 mm 1 mps 641 mmHg 43%
    14:00 +16°C° 0 mm 1 mps 641 mmHg 51%
    15:00 +15°C° 0 mm 1 mps 640 mmHg 59%
    16:00 +14°C° 0 mm 1 mps 639 mmHg 68%
    17:00 +12°C° 0 mm 1 mps 639 mmHg 70%
    18:00 +10°C° 0 mm 1 mps 638 mmHg 73%
    19:00 +8°C° 0 mm 1 mps 637 mmHg 76%
    20:00 +8°C° 0 mm 1 mps 637 mmHg 74%
    21:00 +7°C° 0 mm 1 mps 637 mmHg 72%
    22:00 +7°C° 0 mm 1 mps 637 mmHg 69%
    23:00 +7°C° 0 mm 1 mps 637 mmHg 69%

    28 October, Monday

    Time Temperature Precipitation Wind Pressure Humidity
    00:00 +7°C° 0 mm 1 mps 636 mmHg 69%
    01:00 +6°C° 0 mm 1 mps 636 mmHg 69%
    02:00 +6°C° 0 mm 1 mps 636 mmHg 71%
    03:00 +6°C° 0 mm 1 mps 636 mmHg 72%
    04:00 +6°C° 0 mm 1 mps 636 mmHg 73%
    05:00 +6°C° 0 mm 1 mps 635 mmHg 75%
    06:00 +6°C° 0 mm 1 mps 635 mmHg 76%
    07:00 +6°C° 0 mm 1 mps 635 mmHg 77%
    08:00 +8°C° 0 mm 1 mps 636 mmHg 72%
    09:00 +11°C° 0 mm 1 mps 637 mmHg 66%
    10:00 +13°C° 0 mm 1 mps 638 mmHg 61%
    11:00 +14°C° 0 mm 1 mps 637 mmHg 59%
    12:00 +14°C° 0 mm 1 mps 637 mmHg 58%
    13:00 +15°C° 0 mm 1 mps 637 mmHg 56%
    14:00 +14°C° 0 mm 1 mps 637 mmHg 63%
    15:00 +13°C° 0 mm 1 mps 636 mmHg 70%
    16:00 +12°C° 0 mm 1 mps 636 mmHg 77%
    17:00 +10°C° 0 mm 1 mps 635 mmHg 82%
    18:00 +9°C° 0 mm 1 mps 635 mmHg 87%
    19:00 +6°C° 0 mm 0 mps 635 mmHg 93%
    20:00 +7°C° 0 mm 0 mps 635 mmHg 93%
    21:00 +7°C° 0 mm 0 mps 635 mmHg 93%
    22:00 +7°C° 0 mm 0 mps 635 mmHg 93%
    23:00 +7°C° 0 mm 0 mps 635 mmHg 94%

    29 October, Tuesday

    Time Temperature Precipitation Wind Pressure Humidity
    00:00 +6°C° 0 mm 0 mps 635 mmHg 94%
    01:00 +6°C° 0 mm 0 mps 635 mmHg 94%
    02:00 +6°C° 0 mm 0 mps 635 mmHg 94%
    03:00 +6°C° 0 mm 0 mps 634 mmHg 95%
    04:00 +6°C° 0 mm 0 mps 634 mmHg 95%
    05:00 +6°C° 0.1 mm 0 mps 635 mmHg 95%
    06:00 +6°C° 0.1 mm 0 mps 635 mmHg 96%
    07:00 +6°C° 0.1 mm 0 mps 635 mmHg 96%
    08:00 +8°C° 0.4 mm 1 mps 635 mmHg 95%
    09:00 +8°C° 0.4 mm 1 mps 635 mmHg 93%
    10:00 +8°C° 0.4 mm 1 mps 635 mmHg 92%
    11:00 +8°C° 0.4 mm 1 mps 635 mmHg 92%
    12:00 +7°C° 0.4 mm 1 mps 635 mmHg 92%
    13:00 +7°C° 0.4 mm 1 mps 635 mmHg 92%
    14:00 +7°C° 0.6 mm 1 mps 635 mmHg 94%
    15:00 +6°C° 0.6 mm 1 mps 635 mmHg 95%
    16:00 +6°C° 0.6 mm 1 mps 635 mmHg 97%
    17:00 +5°C° 0.9 mm 1 mps 635 mmHg 97%
    18:00 +5°C° 0.9 mm 1 mps 635 mmHg 97%
    19:00 +4°C° 0.9 mm 2 mps 635 mmHg 98%
    20:00 +4°C° 0.9 mm 2 mps 635 mmHg 98%
    21:00 +3°C° 0.9 mm 2 mps 635 mmHg 98%
    22:00 +3°C° 0.9 mm 2 mps 636 mmHg 98%
    23:00 +2°C° 0.9 mm 2 mps 635 mmHg 98%
    Show more